Location: Sungai Buloh
(2.6667°N, 113.1000°E)
Time: 21:58:41
(UTC+00:00)

Daily predictions for brighter satellites

Satellite Brightness Start Highest point End
(mag) Time Altitude Azimuth Time Altitude Azimuth Time Altitude Azimuth
Cosmos 1766 3.0 12:05:33 10° N 12:09:14 85° W 12:09:32 73° SSW
Cosmos 1980 Rocket 2.1 12:04:11 10° NNW 12:09:47 83° WSW 12:12:33 31° S
DELTA 2 R/B (1) 4.4 12:07:50 10° WNW 12:13:06 42° SW 12:15:06 31° S
USA 215 3.3 12:13:36 32° SSE 12:16:56 74° SW 12:23:27 10° NW
IRIDIUM 106 4.2 12:14:56 10° N 12:20:06 73° E 12:20:51 62° SE
Delta 198 4.3 12:16:45 10° WSW 12:23:06 82° SSE 12:25:10 47° ENE
Cosmos 1763 Rocket 3.2 12:19:37 10° N 12:24:43 84° E 12:25:04 77° SE
Palapa B4 Rocket 3.9 12:31:56 10° W 12:35:00 41° WNW 12:35:00 41° WNW
CZ-4B R/B 3.5 12:39:20 54° NNE 12:39:20 54° NNE 12:43:31 10° N
MAQSAT/ARIANE V 2.9 12:31:17 10° W 12:40:01 52° WSW 12:40:01 52° WSW
CZ-4 R/B 3.0 12:45:40 33° WNW 12:45:40 33° WNW 12:48:22 10° NNW
Resurs 01 Rocket 3.5 12:51:33 25° N 12:51:33 25° N 12:53:22 10° N
Cosmos 540 Rocket 4.1 12:47:45 10° NNW 12:51:41 51° NW 12:51:41 51° NW
ARIANE 5 DEB (SYLDA) 4.0 12:43:11 10° W 12:53:00 66° W 12:53:00 66° W
COSMOS 2455 3.9 13:15:31 39° NNW 13:15:31 39° NNW 13:19:44 10° N
BREEZE-M R/B 4.5 13:11:16 10° SW 13:20:21 48° WSW 13:20:21 48° WSW
SL-16 R/B 4.0 13:17:08 10° NNW 13:19:21 25° NNW 13:19:21 25° NNW
FALCON 9 R/B 3.4 13:16:56 10° NW 13:22:44 86° SW 13:22:44 86° SW
ARIANE 5 R/B 4.1 13:34:07 10° W 13:40:52 29° W 13:40:52 29° W
Ariane H10+ 4.1 13:58:15 10° W 14:33:10 - E 14:03:24 53° W
SL-16 R/B 4.4 19:06:54 24° NE 19:06:54 24° NE 19:09:44 10° NNE
CZ-3 R/B 4.4 18:10:25 10° WNW 19:14:32 67° SW 19:29:31 10° SE
ARIANE 5 R/B 3.8 19:58:39 76° SE 19:58:39 76° SE 20:22:02 10° E
ATLAS 3B R/B 3.4 20:00:33 39° NNW 20:00:33 39° NNW 20:05:20 10° N
H-2A R/B 3.0 19:57:52 10° NNE 20:02:21 40° E 20:02:21 40° E
Cosmos 2056 Rocket 3.8 20:12:27 64° E 20:12:27 64° E 20:17:40 10° NNE
Hubble Space Telescope 3.0 20:17:42 19° NNE 20:17:42 19° NNE 20:19:18 10° NNE
Cosmos 2061 Rocket 3.9 20:22:20 60° S 20:23:37 88° W 20:29:54 10° N
USA 229 DEB 3.1 20:29:18 69° SW 20:30:03 83° WNW 20:36:02 10° NNE
USA 59 Rocket 3.4 20:29:25 10° SE 20:30:08 10° ESE 20:30:50 10° ESE
USA 229 3.1 20:29:23 68° SW 20:30:10 84° WNW 20:36:08 10° NNE
Cosmos 1420 Rocket 4.3 20:32:51 50° NW 20:32:51 50° NW 20:37:16 10° N
Meteor 1-26 Rocket 4.0 20:26:46 10° N 20:32:09 77° W 20:32:50 66° SSW
Meteor 2-21 Rocket 4.4 20:26:05 10° N 20:32:10 80° E 20:38:06 11° S
Cosmos 1939 Rocket 3.6 20:28:34 10° NNE 20:32:15 46° E 20:32:21 46° ESE
Cosmos 2369 Rocket 2.0 20:34:48 64° SW 20:35:41 81° WNW 20:41:16 10° NNE
Cosmos 2221 2.5 20:33:04 10° N 20:37:14 74° E 20:37:40 66° SE
Cosmos 1269 Rocket 4.1 20:32:46 10° N 20:38:01 74° ENE 20:43:18 10° SSE
Lacrosse 4 Rocket 4.2 20:38:08 10° ESE 20:39:09 11° ESE 20:40:08 10° E
CBERS-1 3.9 20:35:43 10° NNE 20:40:49 89° E 20:42:28 45° SSW
GOES 2 Rocket 4.1 20:46:35 31° S 20:46:35 31° S 20:49:42 10° SE
Ariane H10 2.6 20:45:51 32° NNE 20:45:51 32° NNE 20:48:08 10° ENE
deb Ariane 4.1 20:44:35 27° W 20:48:39 81° N 20:51:54 10° E
BREEZE-M DEB (TANK) 3.2 20:47:55 46° W 20:49:00 58° SW 21:00:41 10° SSE
Delta 142 4.1 20:53:28 25° WNW 20:56:34 90° SSW 21:03:14 10° ESE
Meteor 1-20 Rocket 4.2 20:54:36 29° SSW 20:57:35 64° W 21:03:20 10° N
H-2A R/B 2.2 20:56:58 39° SSW 20:58:37 66° SE 21:06:10 10° ENE
Cosmos 1484 Rocket 3.3 20:55:11 10° N 20:58:07 38° NW 20:58:07 38° NW
BREEZE-M DEB (TANK) 4.4 20:58:42 36° SW 21:00:39 89° SE 21:12:38 10° NE
DMSP B5D2-2 4.1 21:02:03 10° S 21:07:09 53° WSW 21:12:16 10° NNW
ARGOS 3.1 21:03:33 10° NNE 21:08:58 89° W 21:14:23 10° SSW
Cosmos 1833 Rocket 3.3 21:04:43 10° NW 21:09:40 32° WSW 21:14:38 10° SSW
IRS-1C 4.4 21:05:31 10° NNE 21:10:47 69° ESE 21:16:05 10° S
Palapa 6 Rocket 3.6 21:08:27 27° W 21:11:30 63° NNW 21:16:19 10° ENE
ATLAS 5 CENTAUR R/B 4.3 21:12:32 14° SW 21:14:22 15° SSW 21:18:34 10° S
ARIANE 5 R/B 0.8 21:16:43 45° W 21:17:17 89° N 21:21:12 10° E
ATLAS CENTAUR R/B 3.9 21:17:38 10° NNE 21:21:08 25° ENE 21:24:41 10° SE
Ariane H10+ 2.8 21:19:47 23° WSW 21:22:33 81° S 21:44:41 10° E
H-2A R/B 2.9 21:23:04 10° N 21:26:05 37° W 21:27:41 22° SW
Delta 2 Rocket 4.2 21:24:16 21° W 21:26:13 32° SW 21:30:17 10° SSE
Cosmos 1743 4.4 21:23:56 10° SSE 21:27:11 32° E 21:30:25 10° NNE
Stardust Del rocket 4.4 21:25:40 22° SW 21:27:17 29° SSW 21:32:37 10° SE
IRS-P3 4.2 21:24:23 10° NNE 21:29:42 83° ESE 21:35:01 10° S
Cosmos 1072 Rocket 4.4 21:26:19 10° S 21:32:34 81° W 21:38:43 10° N
Cosmos 1331 Rocket 4.0 21:30:14 10° SSW 21:35:30 78° WNW 21:40:45 10° N
COSMOS 2406 3.7 21:30:09 10° N 21:35:43 64° ENE 21:41:20 10° SSE
FengYun 1-2 T 4.5 21:30:27 10° N 21:35:53 52° WNW 21:41:22 10° SSW
Tsikada Rocket 4.1 21:30:15 10° NNW 21:36:23 57° W 21:42:29 10° S
ARIANE 5 R/B 2.6 21:33:55 10° N 21:38:51 58° WNW 21:43:50 10° SSW
H-2A R/B 3.9 21:40:27 10° WNW 21:41:34 11° WNW 21:42:42 10° W
DELTA-4 R/B 3.4 21:36:11 10° W 21:41:41 43° NNW 21:44:42 10° ENE
Lacrosse 5 rocket 4.1 21:42:57 10° SE 21:43:46 11° ESE 21:44:35 10° ESE
Ariane 42P Rocket 3.0 21:39:55 13° WSW 21:44:10 32° S 21:46:25 10° ESE
ARIANE 5 R/B 2.4 21:36:31 10° W 21:46:25 60° S 21:49:05 10° ESE
Meteor 1-27 Rocket 4.1 21:40:33 10° N 21:46:26 77° E 21:52:15 10° S
Cosmos 1464 Rocket 4.1 21:41:30 10° SSW 21:47:47 63° W 21:53:59 10° N
Okean 1 3.1 21:46:04 10° NNW 21:49:47 64° W 21:53:31 10° S
BREEZE-M DEB (TANK) 3.4 21:48:43 10° WNW 21:51:29 19° WSW 21:53:21 10° S
SJ-11-01 4.4 21:50:59 10° N 21:55:30 55° WNW 22:00:03 10° SSW
Cosmos 1452 Rocket 4.1 21:51:08 10° SW 21:55:57 38° WNW 22:00:46 10° N
Cosmos 1302 Rocket 4.4 21:53:10 10° S 21:58:18 67° ESE 22:03:25 10° NNE
Cosmos 2344 4.5 21:54:37 10° SW 22:03:53 38° WNW 22:11:08 10° N
